Overview Statistics Trail Chart Weather Telemetry Raw packets
 

This is the latest recevied weather packets stored in our database for station/object N1YZ. If no packets are shown the sender has not sent any weather packets the latest 10 day(s).

<< 103 104 105 106 107 108 109 >>
Time Temp. Humidity Pressure Rain* Wind** Luminosity Snow
1787873902 26.11° C 87% 1033.3 hPa 0 mm - 8 W/m² -
1787873602 26.11° C 88% 1033.4 hPa 0 mm - 11 W/m² -
1787873297 26.11° C 88% 1033.5 hPa 0 mm - 13 W/m² -
1787872995 26.11° C 88% 1033.7 hPa 0 mm - 11 W/m² -
1787872691 26.11° C 88% 1033.4 hPa 0 mm - 14 W/m² -
1787872387 26.67° C 88% 1033.4 hPa 0 mm - 15 W/m² -
1787872081 26.67° C 88% 1033.6 hPa 0 mm - 17 W/m² -
1787871775 26.67° C 87% 1033.3 hPa 0 mm - 18 W/m² -
1787871471 26.67° C 87% 1033.6 hPa 0 mm - 20 W/m² -
1787871165 26.67° C 86% 1033.4 hPa 0 mm - 22 W/m² -
1787870860 26.67° C 86% 1033.5 hPa 0 mm - 24 W/m² -
1787870555 26.67° C 86% 1033.4 hPa 0 mm - 27 W/m² -
1787870251 26.67° C 85% 1033.3 hPa 0 mm - 27 W/m² -
1787869945 27.22° C 84% 1033 hPa 0 mm - 29 W/m² -
1787869645 27.22° C 84% 1033 hPa 0 mm - 30 W/m² -
1787869339 27.22° C 83% 1033 hPa 0 mm - 33 W/m² -
1787869038 27.22° C 83% 1033.1 hPa 0 mm - 32 W/m² -
1787868737 27.22° C 83% 1033.1 hPa 0 mm - 31 W/m² -
1787868436 27.22° C 82% 1033.1 hPa 0 mm - 34 W/m² -
1787868136 27.22° C 82% 1033.2 hPa 0 mm - 35 W/m² -
1787867831 27.22° C 81% 1033.3 hPa 0 mm - 36 W/m² -
1787867527 27.78° C 82% 1033.5 hPa 0 mm - 41 W/m² -
1787867221 27.78° C 82% 1033.2 hPa 0 mm - 48 W/m² -
1787866916 27.78° C 82% 1033.5 hPa 0 mm - 49 W/m² -
1787866612 27.78° C 82% 1033.2 hPa 0 mm - 52 W/m² -

* Rain latest hour (hover to see other rain measurements)
** Current wind speed in m/s (hover to see current wind gust speed)